Theta_e
316 315 315 315 315 315 315 314 314 314 315 319 321 323 325 319 318 317 317 315 315 316 315 315 316 316 309 298 298 309 312 313 310 311 308 306 303 301 297 300 301 299 300 300 302 302 301
316 315 315 315 314 314 313 314 313 313 313 315 317 319 323 318 315 316 316 315 315 316 315 315 316 315 303 293 308 309 309 310 308 308 307 307 304 306 300 299 300 301 300 300 301 299 300
315 315 315 315 314 313 312 312 312 312 312 313 313 316 319 318 316 316 316 315 315 315 315 314 316 311 301 298 307 309 310 309 310 308 305 309 309 304 302 296 301 301 296 299 299 299 297
315 315 315 315 314 313 312 312 312 312 312 312 312 314 316 318 316 316 314 314 313 314 315 315 315 308 296 306 309 309 310 309 312 313 310 311 311 306 303 303 300 296 297 291 296 298 298
316 315 315 314 313 313 313 312 312 311 312 311 311 313 315 317 315 314 313 313 313 314 315 314 309 301 295 309 304 308 308 306 308 310 308 308 307 302 301 296 294 294 289 290 292 298 297
316 316 316 315 314 313 312 312 312 311 311 311 311 311 312 313 315 312 313 313 313 312 308 308 304 296 299 298 304 306 309 308 304 304 302 303 300 297 295 295 288 289 289 291 291 294 296
315 314 314 314 315 314 314 313 311 312 311 311 310 310 310 313 313 312 310 307 299 298 300 296 296 295 297 303 306 305 307 306 304 299 295 297 297 291 293 296 296 295 293 291 293 296 294
314 313 313 313 313 314 314 314 313 311 311 310 310 309 314 315 312 311 308 300 300 301 293 299 298 298 301 303 297 302 307 300 298 294 295 295 293 296 297 297 295 295 293 292 295 296 295
312 312 312 313 312 312 313 313 313 312 312 311 309 308 311 312 310 308 303 301 306 304 294 295 298 297 298 302 296 298 303 299 296 292 293 292 294 297 296 294 293 294 293 292 292 295 296
312 311 310 310 310 311 311 312 312 312 312 311 309 308 309 310 304 304 300 306 306 304 289 290 294 297 300 300 294 302 304 300 296 292 293 293 296 294 294 293 294 290 295 295 294 292 287
310 310 311 311 311 310 310 311 311 311 312 312 310 308 308 310 304 300 303 306 306 300 279 291 294 303 300 296 296 297 305 300 293 293 293 290 292 292 291 292 295 292 297 295 295 291 290
310 310 310 310 310 310 310 310 310 310 311 311 310 308 309 308 306 306 307 306 302 287 278 288 294 292 293 295 294 298 298 301 300 293 293 292 295 295 294 296 296 297 296 295 295 292 284
309 309 309 309 309 310 310 310 310 310 311 310 309 308 308 308 300 308 306 300 287 281 287 287 289 293 291 290 291 293 291 291 289 285 285 288 289 293 296 293 296 295 292 284 282 282 282
308 309 309 309 310 311 310 310 309 310 310 309 308 309 311 308 308 307 302 292 282 285 285 290 291 291 288 291 290 291 290 288 291 289 287 283 281 289 294 293 291 292 291 285 277 279 283
308 308 309 309 310 309 308 308 309 309 308 307 308 306 305 307 307 305 296 285 285 286 288 289 290 287 287 290 290 290 289 288 290 291 285 284 282 291 292 295 294 289 287 292 285 284 284
308 308 309 309 308 308 307 307 308 307 306 307 304 301 300 308 307 301 291 286 288 291 291 291 285 288 285 288 287 288 287 290 289 292 293 288 282 289 292 295 295 292 293 285 287 279 277
307 308 308 309 308 307 307 308 307 305 305 307 303 294 302 307 305 295 286 288 290 294 294 291 287 287 286 287 288 287 286 290 291 292 293 291 287 286 289 288 286 289 287 288 286 286 281
307 307 307 308 307 306 307 306 307 305 306 306 301 289 304 306 290 292 288 290 294 293 295 293 291 290 288 289 287 287 287 288 291 293 289 292 288 282 284 290 293 291 287 287 283 281 283
307 307 307 307 307 305 305 306 306 306 306 303 293 294 304 302 287 288 291 291 293 292 293 292 290 291 291 288 284 287 288 289 292 292 289 290 285 279 279 286 289 286 287 287 286 286 283
306 306 307 307 307 306 305 304 305 305 306 304 294 287 294 296 295 291 289 288 289 294 293 292 291 292 290 287 289 286 286 287 290 292 291 291 285 281 277 280 284 282 284 286 285 281 282
305 306 306 306 307 307 306 306 305 304 305 303 294 290 293 287 290 292 291 290 288 288 293 293 290 290 288 285 286 285 285 285 287 288 288 287 280 281 282 283 283 282 282 283 282 284 281
305 305 306 306 306 306 306 306 305 304 304 299 291 289 294 292 292 291 290 289 288 289 290 289 289 290 289 285 284 283 285 285 283 286 285 285 280 278 277 282 283 280 283 284 285 285 285
305 305 305 306 306 306 306 306 305 306 306 297 298 297 290 292 290 289 289 289 288 290 287 287 289 289 287 285 287 287 287 287 286 284 283 282 281 279 278 281 281 279 285 286 287 288 287
305 305 305 305 305 305 306 306 305 305 305 302 301 297 289 288 290 290 290 291 289 287 286 286 287 287 286 290 290 290 289 287 287 286 286 281 280 281 280 280 275 285 290 291 287 287 288
304 304 304 305 305 305 306 307 307 306 306 303 301 296 291 287 291 290 290 288 287 286 285 285 286 286 290 289 286 283 284 283 284 285 284 285 283 280 278 278 281 285 288 287 286 286 289
304 304 304 304 305 305 305 306 306 307 307 304 302 300 293 288 288 286 289 287 286 284 284 284 288 290 290 288 285 279 279 279 279 279 285 285 285 282 279 274 275 286 289 292 291 284 290
303 303 304 304 304 305 305 306 307 306 308 306 301 303 293 288 288 287 287 286 287 285 284 285 286 287 289 286 283 282 281 283 280 278 278 279 280 278 279 278 280 286 290 292 282 284 291
303 303 304 304 304 304 304 306 307 307 309 304 297 298 295 290 288 288 288 286 287 287 285 285 285 285 285 283 284 284 282 283 281 282 280 280 279 279 279 277 276 289 290 286 290 292 292
303 303 303 304 304 304 304 305 306 306 306 302 295 297 298 292 288 290 290 290 289 288 288 286 284 286 289 286 284 284 282 281 282 280 284 280 284 284 283 284 288 293 292 293 293 292 291
Wind_Speed
18 18 18 19 19 21 21 22 22 22 22 23 23 20 11 7 8 10 12 10 11 10 7 8 12 11 3 4 7 4 10 8 2 2 4 4 6 5 8 7 7 5 6 3 6 9 15
17 17 17 18 19 19 19 20 21 22 22 20 23 25 11 8 6 11 9 11 10 11 6 6 11 7 3 6 2 5 10 5 3 3 2 4 3 5 2 4 9 7 7 8 12 16 12
19 17 18 17 17 19 20 21 19 20 22 22 23 21 25 8 8 9 9 9 9 12 9 5 9 4 6 10 2 9 7 6 2 4 2 2 4 3 3 4 3 7 7 4 9 9 8
18 18 18 18 17 16 18 20 20 21 21 22 23 21 20 9 8 7 8 10 8 10 10 6 6 3 8 3 8 9 6 4 3 5 3 2 3 4 5 3 4 5 4 4 3 11 6
19 19 18 16 15 15 15 16 20 21 21 21 22 21 21 18 8 6 8 13 10 9 9 4 3 4 8 7 5 5 3 5 9 5 3 3 1 2 5 6 4 6 4 7 5 5 4
21 21 20 19 19 16 15 14 13 19 19 21 22 22 22 24 9 6 11 16 9 4 3 4 2 4 5 2 4 8 3 3 3 7 4 5 3 2 3 6 2 6 6 7 9 5 3
22 23 24 24 22 21 19 18 15 17 18 19 20 23 25 24 9 6 5 3 4 4 3 7 5 3 3 4 3 3 3 6 3 1 3 1 5 4 5 6 9 4 7 8 2 7 1
22 23 24 23 24 23 21 20 18 19 18 17 18 22 26 10 6 1 1 3 2 3 5 9 4 3 4 2 2 4 5 4 3 2 3 4 4 2 6 6 4 3 5 5 2 1 5
23 23 24 24 24 24 23 21 20 18 20 17 15 18 18 6 3 1 3 3 5 4 4 2 4 3 2 5 1 3 5 2 2 2 2 5 2 5 6 3 2 1 2 4 1 3 7
23 24 24 23 24 25 24 21 21 20 19 15 13 15 15 4 3 1 2 2 5 2 2 4 4 3 4 3 2 1 3 3 3 2 2 5 3 4 5 5 5 2 2 4 6 8 2
25 25 25 26 26 26 25 24 22 21 20 17 14 14 15 5 3 2 4 5 4 1 1 4 3 2 2 3 2 2 1 2 2 0 3 1 2 2 5 4 5 4 3 3 6 2 4
26 26 27 27 28 27 26 24 22 23 21 17 14 13 13 1 2 3 4 3 1 2 3 2 2 3 3 1 2 0 3 1 2 1 3 4 2 3 5 5 2 2 4 5 4 3 5
26 27 27 27 28 28 27 26 22 21 20 16 12 14 13 3 3 3 4 3 2 2 0 3 2 3 2 2 1 1 0 2 2 2 2 2 3 3 2 5 3 7 7 3 4 4 3
26 27 28 28 30 27 26 25 23 17 18 12 13 21 9 6 3 4 4 4 3 2 3 1 2 4 2 5 1 1 2 1 0 1 2 4 2 2 2 2 3 8 5 4 5 4 2
25 26 26 28 26 26 26 25 20 14 10 7 12 4 5 4 3 4 6 2 3 3 1 3 4 4 4 3 1 3 0 1 2 3 4 3 2 2 3 4 2 1 6 3 1 1 3
25 26 26 27 24 23 25 22 14 5 4 7 4 3 2 3 2 2 3 2 3 4 2 2 1 3 3 4 4 3 1 2 2 2 4 1 4 1 2 2 2 4 2 2 3 6 6
23 24 25 24 19 19 22 18 10 5 9 8 1 2 2 4 2 2 3 2 2 3 4 3 0 2 0 2 3 2 2 2 4 2 2 0 3 1 4 2 5 1 3 3 2 5 3
22 24 24 23 16 14 17 14 12 9 12 3 1 2 4 3 2 2 2 3 1 2 3 2 1 0 2 4 3 2 2 3 6 2 1 2 2 4 5 3 4 1 3 5 4 4 1
22 22 23 21 14 7 12 16 13 10 10 3 2 3 3 2 2 3 1 2 2 1 3 1 1 1 1 3 1 1 2 2 7 3 2 3 1 4 1 4 6 4 4 2 4 3 5
19 20 21 19 16 9 9 8 14 9 9 2 2 1 3 1 3 2 4 4 2 1 2 1 2 1 2 2 2 4 3 3 3 3 6 1 2 2 6 5 3 5 5 4 4 2 5
17 19 20 19 17 13 7 15 7 8 6 2 1 1 1 3 3 3 4 3 1 3 2 1 1 2 2 2 2 2 2 3 4 5 3 3 1 2 6 6 8 9 9 7 5 6 4
17 16 18 18 16 14 10 10 5 3 2 2 0 2 1 0 5 3 1 1 1 2 1 1 2 3 1 1 3 3 3 1 2 4 3 4 2 1 3 5 4 5 7 8 10 10 10
16 16 16 17 14 13 6 5 4 9 9 1 2 1 1 2 4 4 3 2 2 2 3 5 2 3 3 4 7 8 8 8 5 2 2 2 2 2 3 7 3 3 4 2 0 0 4
17 15 15 15 14 12 10 3 2 5 4 1 2 3 3 0 4 6 1 4 0 1 3 4 4 1 4 12 11 10 12 10 8 8 5 4 3 1 3 4 1 3 4 2 5 4 2
16 15 13 15 12 11 12 6 5 6 5 2 2 3 3 3 6 5 5 3 6 5 4 4 5 3 11 1 2 3 2 1 4 6 4 3 0 1 2 2 3 3 2 2 3 3 1
17 15 15 13 13 10 10 10 9 10 12 6 5 3 2 6 1 3 3 4 3 3 3 4 5 6 2 1 1 2 2 2 3 1 2 1 2 2 1 2 1 5 2 1 3 5 2
17 16 15 14 12 12 11 13 11 16 23 11 3 12 2 3 2 1 2 1 3 3 4 4 5 3 2 1 2 3 1 1 3 4 5 3 3 3 3 3 4 3 1 4 4 5 5
17 17 15 13 12 13 12 12 10 15 17 10 6 5 3 2 3 1 2 1 2 2 4 6 5 3 3 4 3 2 3 3 3 2 4 5 6 4 3 4 2 5 4 4 4 2 1
16 19 16 15 11 12 12 11 8 7 5 3 5 3 2 5 3 1 2 2 2 2 3 4 2 4 3 3 2 2 3 2 2 2 4 5 4 2 6 1 3 3 1 1 2 2 1
Wind_Direction
350 347 344 341 343 346 347 349 344 343 343 343 339 335 257 249 288 297 304 308 301 294 320 327 310 327 316 276 258 317 316 311 209 297 335 330 273 253 195 191 180 200 156 94 17 0 340
341 340 339 340 341 345 341 342 343 347 339 339 338 341 285 217 253 280 294 299 300 294 306 320 303 321 262 275 98 314 320 289 261 254 314 308 324 309 321 221 217 137 126 97 43 17 3
335 331 331 331 336 340 338 338 340 343 338 339 339 340 345 211 246 277 295 301 304 298 301 306 297 287 257 259 321 324 306 284 221 227 230 222 292 302 176 177 174 165 188 69 49 20 11
326 326 324 327 329 330 333 335 337 338 337 339 338 339 342 244 244 274 299 296 293 285 286 294 292 241 261 253 301 288 311 314 263 263 262 277 4 290 293 135 183 176 162 209 70 6 7
323 320 318 316 316 319 320 324 326 330 332 336 337 336 338 336 276 288 296 291 280 267 278 258 174 233 274 312 276 330 304 313 305 238 230 247 225 292 162 197 166 198 187 199 260 67 305
327 322 319 309 308 302 300 305 314 316 323 331 333 332 329 331 257 283 293 291 281 263 173 125 106 262 243 261 313 315 294 288 275 295 224 210 192 244 269 254 266 200 183 195 203 151 251
331 330 328 328 323 311 303 303 304 306 316 326 332 331 321 312 237 267 314 321 196 170 190 215 168 274 272 286 273 242 347 300 266 206 270 208 208 197 289 309 308 296 293 201 144 169 226
333 330 325 318 320 320 312 303 305 302 309 321 332 332 321 297 192 253 263 246 38 22 279 224 179 244 270 276 288 274 323 275 303 275 288 235 240 177 307 281 264 185 148 115 121 43 225
330 330 325 326 324 321 321 314 304 300 301 313 326 331 348 43 38 261 231 243 140 184 260 142 179 196 175 209 212 280 326 310 354 263 314 267 51 310 275 248 200 115 90 143 43 173 260
331 327 325 325 323 322 321 319 317 302 298 301 310 323 333 331 285 289 233 194 169 201 302 136 161 139 150 184 215 296 300 304 193 247 291 267 321 299 285 278 297 211 196 172 151 165 289
329 328 328 329 326 324 320 314 308 306 298 293 295 308 309 258 313 237 339 180 150 223 298 92 122 77 138 234 104 159 284 254 253 273 246 49 333 294 255 298 318 8 309 212 187 217 276
330 331 331 331 325 321 315 311 305 302 293 288 284 292 296 237 215 235 255 192 152 226 250 124 108 177 173 144 141 239 220 245 355 249 304 316 311 286 327 311 315 182 156 113 146 240 267
330 329 329 328 322 317 310 304 298 297 292 291 292 287 273 230 208 167 218 215 125 225 258 160 165 198 178 143 152 356 316 184 272 244 35 297 299 306 276 283 208 229 212 171 205 212 249
328 332 331 327 324 320 320 309 298 292 302 302 305 304 206 180 145 153 216 195 199 74 242 48 115 150 175 162 138 157 243 202 248 357 73 9 133 328 356 288 312 236 275 264 217 203 190
330 329 330 330 334 342 339 332 308 293 310 308 323 336 122 140 137 180 223 203 137 176 260 174 146 211 157 159 275 213 354 27 347 235 350 338 148 299 298 310 319 219 231 358 59 27 245
329 330 332 338 344 344 341 342 334 354 296 357 330 332 43 80 129 224 217 209 132 166 166 181 265 273 174 162 206 211 190 37 14 301 315 72 300 86 345 274 179 292 45 204 182 207 217
327 328 333 340 345 349 356 2 27 47 6 344 320 331 110 89 60 203 200 204 165 210 189 191 194 188 162 161 214 158 107 89 356 13 232 230 318 90 260 19 359 5 282 266 338 328 277
322 330 334 340 343 356 2 359 354 22 357 7 345 332 107 148 103 202 199 199 226 109 161 157 158 126 185 158 175 159 127 41 349 316 42 19 283 293 333 355 340 3 85 3 313 145 29
324 326 333 341 341 348 11 349 344 359 23 342 16 331 80 322 134 179 243 264 311 140 136 120 169 318 125 166 220 137 128 69 14 38 37 10 97 294 198 136 63 53 56 101 263 266 215
319 322 329 339 336 307 350 325 302 331 0 29 334 303 81 199 305 157 200 235 158 201 97 120 121 150 162 141 39 143 141 59 25 61 29 252 87 278 290 338 350 296 307 357 346 288 347
319 321 325 333 339 333 1 326 242 278 321 1 66 354 273 164 268 196 225 340 186 104 66 173 134 237 202 151 141 122 136 141 75 5 42 48 106 318 293 301 275 260 276 261 263 274 285
315 319 318 329 336 334 25 350 211 239 242 214 268 305 343 20 135 142 287 350 268 106 78 107 250 120 96 93 17 172 159 222 40 63 51 5 112 37 274 348 334 252 256 247 254 266 270
311 310 312 322 329 338 3 6 34 334 204 181 181 164 218 149 141 184 250 210 347 150 69 47 342 131 108 60 78 68 72 74 83 57 81 48 111 330 39 3 319 147 30 28 92 7 301
303 302 305 311 319 333 324 15 96 77 207 109 6 85 308 331 212 219 329 226 64 48 85 39 21 48 104 126 110 85 74 77 71 57 30 120 111 222 338 307 79 73 17 46 119 114 8
297 298 297 302 311 316 315 294 279 281 239 185 130 128 268 300 217 238 208 139 111 63 68 62 3 358 150 162 118 131 110 112 63 33 30 30 174 84 326 321 339 133 142 243 279 150 49
288 290 290 299 302 298 300 297 281 272 266 252 227 140 239 306 112 355 197 196 153 102 106 62 41 116 330 25 173 232 240 84 180 163 355 103 72 287 187 287 273 106 149 288 224 215 152
279 285 285 292 294 289 297 300 292 285 269 220 153 175 196 255 91 323 242 215 109 98 94 134 165 181 317 209 233 233 205 301 213 198 184 184 218 229 203 260 263 207 308 153 235 72 148
272 278 282 283 287 286 291 299 309 349 122 130 115 144 210 135 78 347 336 217 136 177 163 135 147 173 163 216 230 183 228 184 219 174 196 198 174 188 165 224 256 161 154 238 45 159 144
259 273 277 279 276 275 283 296 320 21 219 96 109 138 132 77 80 66 75 50 301 327 122 172 354 156 157 161 201 138 191 193 245 243 198 229 243 229 226 257 112 160 272 149 171 270 52